DW2671 Weather Reports


time (UTC)temp
C
wind
direction
speed
KPH
gust
KPH
rain 1hr
cm
rain 24hr
cm
rain mn
cm
humidity
%
barometer
mb
20260507160105 16 225 6.4 14.5 0.00 0.74 0.53 42 1010.1
20260507155103 16 289 6.4 19.3 0.00 0.74 0.53 50 1010.1
20260507154104 15 225 4.8 16.1 0.00 0.74 0.53 50 1010.5
20260507153105 15 242 6.4 14.5 0.00 0.74 0.53 52 1010.5
20260507152105 16 315 11.3 11.3 0.00 0.74 0.53 54 1010.5
20260507151104 16 249 4.8 9.7 0.00 0.74 0.53 57 1010.5
20260507150104 15 255 6.4 9.7 0.00 0.74 0.53 64 1010.5
20260507145103 15 207 6.4 16.1 0.00 0.74 0.53 70 1010.5
20260507144104 14 21 6.4 11.3 0.00 0.74 0.53 71 1010.5
20260507143104 14 281 6.4 11.3 0.00 0.74 0.53 78 1010.5
20260507142104 13 263 11.3 19.3 0.00 0.74 0.53 70 1010.5
20260507141104 13 213 12.9 16.1 0.00 0.74 0.53 80 1010.5
20260507135104 13 264 4.8 4.8 0.00 0.74 0.53 80 1010.5
20260507134104 12 293 4.8 9.7 0.00 0.74 0.53 87 1010.5
20260507133104 12 269 1.6 3.2 0.00 0.74 0.53 94 1010.5
20260507132104 12 256 1.6 3.2 0.00 0.74 0.53 90 1010.5
20260507131104 12 308 3.2 4.8 0.00 0.74 0.53 92 1010.5
20260507130103 12 295 3.2 4.8 0.00 0.74 0.53 91 1010.5
20260507124104 11 305 1.6 3.2 0.00 0.74 0.53 97 1009.8
20260507123104 10 270 8.0 4.8 0.00 0.74 0.53 97 1009.8
20260507121103 10 263 3.2 3.2 0.00 0.74 0.53 97 1009.8
20260507120106 10 292 3.2 3.2 0.00 0.74 0.53 97 1009.4
20260507115104 9 270 0.0 1.6 0.03 0.74 0.53 97 1009.4
20260507113103 9 292 0.0 1.6 0.03 0.74 0.53 97 1009.4
20260507111105 9 292 0.0 0.0 0.05 0.74 0.53 97 1009.1
20260507110105 9 292 0.0 0.0 0.08 0.74 0.53 97 1009.1
20260507105105 8 292 0.0 0.0 0.05 0.71 0.48 97 1009.1
20260507104105 8 292 0.0 0.0 0.08 0.71 0.48 97 1009.1
20260507103103 8 292 0.0 0.0 0.08 0.71 0.48 97 1009.1
20260507100105 8 292 0.0 9.7 0.08 0.66 0.43 97 1009.1
20260507095104 8 247 1.6 3.2 0.10 0.66 0.43 97 1009.1
20260507094104 8 270 1.6 3.2 0.10 0.64 0.41 97 1008.8
20260507093106 8 270 1.6 4.8 0.15 0.64 0.41 97 1008.8
20260507092104 9 292 1.6 3.2 0.20 0.61 0.38 97 1008.8
20260507091104 9 248 1.6 3.2 0.20 0.58 0.36 97 1008.8
20260507090105 9 253 1.6 9.7 0.23 0.58 0.36 97 1008.4
20260507084105 9 277 1.6 4.8 0.20 0.53 0.30 97 1009.1
20260507083106 9 270 1.6 3.2 0.20 0.46 0.25 97 1009.1
20260507082105 9 270 0.0 0.0 0.15 0.41 0.20 97 1008.8
20260507081104 10 270 0.0 0.0 0.13 0.38 0.15 97 1008.8
20260507075106 10 255 0.0 3.2 0.08 0.33 0.10 95 1009.2
20260507074105 10 278 1.6 9.7 0.08 0.33 0.10 93 1008.8
20260507073105 11 262 4.8 11.3 0.03 0.28 0.05 92 1009.1
20260507072104 12 271 3.2 9.7 0.00 0.25 0.03 90 1008.4
20260507071104 12 301 3.2 9.7 0.00 0.25 0.03 91 1008.1
20260507070104 12 270 3.2 9.7 0.00 0.25 0.03 91 1008.4
20260507065104 12 315 0.0 4.8 0.00 0.25 0.03 91 1008.4
20260507064105 12 202 1.6 4.8 0.00 0.25 0.03 91 1008.4
20260507063105 12 268 4.8 11.3 0.00 0.25 0.03 93 1008.8
20260507062104 13 284 0.0 3.2 0.00 0.25 0.03 97 1008.8
20260507061104 13 285 0.0 3.2 0.00 0.25 0.03 97 1008.8
20260507060105 13 225 0.0 1.6 0.00 0.25 0.03 97 1008.8
20260507054104 13 250 1.6 11.3 0.00 0.25 0.03 97 1009.1
20260507053106 13 299 4.8 9.7 0.00 0.25 0.03 97 1009.1
20260507052104 13 270 1.6 3.2 0.00 0.25 0.03 97 1009.1
20260507051104 13 280 3.2 3.2 0.00 0.25 0.03 97 1009.1
20260507050104 14 286 4.8 12.9 0.03 0.25 0.03 97 1009.1
20260507045104 14 294 3.2 4.8 0.03 0.25 0.03 98 1009.1
20260507044105 15 287 4.8 12.9 0.03 0.25 0.03 98 1009.1
20260507043105 15 236 1.6 3.2 0.03 0.25 0.03 98 1008.8
20260507042105 15 225 1.6 3.2 0.03 0.25 0.03 98 1008.8
20260507041105 15 270 0.0 3.2 0.03 0.25 0.03 98 1009.1
20260507040105 15 270 1.6 3.2 0.00 0.23 0.00 98 1009.1
20260507035104 15 227 1.6 12.9 0.00 0.23 0.23 98 1009.1
20260507034105 15 249 4.8 12.9 0.00 0.23 0.23 98 1009.1
20260507033105 15 301 3.2 11.3 0.00 0.23 0.23 98 1009.1
20260507032104 15 239 3.2 9.7 0.00 0.23 0.23 98 1009.1
20260507031105 15 306 1.6 12.9 0.00 0.23 0.23 98 1008.8
20260507030104 15 264 4.8 12.9 0.00 0.23 0.23 98 1008.8
20260507025104 15 188 3.2 12.9 0.00 0.23 0.23 98 1008.8
20260507024106 15 270 3.2 9.7 0.00 0.23 0.23 98 1008.4
20260507022105 15 208 3.2 11.3 0.00 0.23 0.23 98 1008.8
20260507021105 15 210 3.2 14.5 0.00 0.23 0.23 98 1008.8
20260507020105 14 195 3.2 9.7 0.00 0.23 0.23 98 1008.8
20260507015104 14 166 8.0 12.9 0.00 0.23 0.23 98 1008.4
20260507014104 14 203 3.2 3.2 0.00 0.23 0.23 98 1008.4
20260507013105 14 200 3.2 12.9 0.00 0.23 0.23 98 1008.8
20260507012104 14 151 1.6 9.7 0.00 0.23 0.23 97 1008.8
20260507010105 14 186 1.6 9.7 0.00 0.23 0.23 97 1009.1
20260507005105 14 247 4.8 4.8 0.00 0.23 0.23 97 1009.1
20260507004106 14 232 3.2 14.5 0.03 0.23 0.23 97 1009.1
20260506235104 14 117 3.2 9.7 0.08 0.23 0.23 97 1008.8
20260506234105 14 164 3.2 9.7 0.05 0.20 0.20 97 1008.8
20260506233104 14 156 3.2 9.7 0.03 0.15 0.15 98 1008.4
20260506232104 14 197 8.0 12.9 0.03 0.15 0.15 98 1008.8
20260506230105 15 189 6.4 14.5 0.00 0.13 0.13 98 1008.8
20260506225104 15 164 8.0 11.3 0.00 0.13 0.13 98 1008.8
20260506223106 15 141 3.2 3.2 0.03 0.13 0.13 98 1008.8
20260506222103 15 174 4.8 12.9 0.03 0.13 0.13 98 1009.1
20260506221105 15 128 3.2 9.7 0.03 0.13 0.13 98 1009.1
20260506220105 15 160 8.0 12.9 0.03 0.13 0.13 98 1009.1
20260506215104 15 166 4.8 14.5 0.05 0.13 0.13 98 1009.1
20260506214103 15 154 1.6 19.3 0.08 0.13 0.13 98 1009.1
20260506213105 15 154 4.8 14.5 0.05 0.10 0.10 97 1009.4
20260506212104 15 153 8.0 12.9 0.05 0.10 0.10 97 1009.8
20260506205105 15 180 6.4 12.9 0.05 0.08 0.08 95 1009.8
20260506204106 16 123 8.0 16.1 0.03 0.05 0.05 93 1010.1
20260506202105 16 196 8.0 25.7 0.05 0.05 0.05 91 1010.5
20260506201104 16 236 4.8 11.3 0.03 0.03 0.03 91 1010.5
20260506200105 16 180 3.2 14.5 0.03 0.03 0.03 90 1010.5
20260506195104 16 214 8.0 14.5 0.03 0.03 0.03 87 1010.1
20260506194103 16 192 4.8 19.3 0.03 0.03 0.03 85 1010.5
20260506193105 17 167 3.2 9.7 0.03 0.03 0.03 83 1010.8
20260506191105 17 189 3.2 9.7 0.00 0.00 0.00 77 1011.1
20260506190103 18 176 11.3 22.5 0.00 0.00 0.00 71 1011.1
20260506183105 20 198 9.7 19.3 0.00 0.00 0.00 62 1011.1
20260506182105 20 169 11.3 22.5 0.00 0.00 0.00 61 1011.5
20260506181105 20 176 6.4 14.5 0.00 0.00 0.00 61 1011.5
20260506180105 20 175 4.8 12.9 0.00 0.00 0.00 60 1011.8
20260506175105 21 150 4.8 22.5 0.00 0.00 0.00 58 1011.8
20260506174105 21 144 8.0 25.7 0.00 0.00 0.00 56 1012.2
20260506173105 21 188 12.9 35.4 0.00 0.00 0.00 54 1012.2
20260506172104 22 174 19.3 24.1 0.00 0.00 0.00 54 1012.2
20260506171105 22 354 9.7 14.5 0.00 0.00 0.00 55 1011.8
20260506170104 22 182 9.7 14.5 0.00 0.00 0.00 55 1012.2
20260506165104 22 38 4.8 12.9 0.00 0.00 0.00 57 1012.2
20260506164104 22 184 4.8 14.5 0.00 0.00 0.00 57 1012.5
20260506162105 22 193 3.2 12.9 0.00 0.00 0.00 55 1012.8
20260506161104 22 150 8.0 19.3 0.00 0.00 0.00 54 1012.8